Regional Weather Roundup
Issued by NWS Sioux Falls, SD

Home | Current Version | Previous Version | Text Only | Print | Product List | Glossary Off
Versions: 1 2 3 4 5 6 7 8 9 10 11 12 13 14 15 16 17 18 19 20 21 22 23 24 25 26 27 28 29 30 31 32 33 34 35 36 37 38 39 40 41 42 43 44 45 46 47 48 49 50

000
ASUS43 KFSD 270602
RWRFSD

WEATHER ROUNDUP FOR SE SOUTH DAKOTA/SW MINNESOTA/NW IOWA
NATIONAL WEATHER SERVICE SIOUX FALLS SD
100 AM CDT WED MAY 27 2015

NOTE: "FAIR" INDICATES FEW OR NO CLOUDS BELOW 12,000 FEET WITH NO
SIGNIFICANT WEATHER AND OR OBSTRUCTIONS TO VISIBILITY.


SDZ038>040-050-052>070-270700-
SOUTHEAST SOUTH DAKOTA

CITY           SKY/WX    TMP DP  RH WIND       PRES   REMARKS
BROOKINGS      CLOUDY    57  52  82 SW6       29.90R
CHAMBERLAIN    PTCLDY    56  49  79 W5        29.95R
6HR MIN TEMP:  55; 6HR MAX TEMP:  69; 6HR PCP:  0.02;

HURON          PTCLDY    56  48  74 W3        29.90S
6HR MIN TEMP:  55; 6HR MAX TEMP:  76;

MADISON        MOCLDY    57  55  94 SW8       29.90F
MITCHELL       MOCLDY    61  51  70 CALM      29.91S
6HR MIN TEMP:  58; 6HR MAX TEMP:  77;

SIOUX FALLS    MOCLDY    51  49  92 SW3       29.90S
6HR MIN TEMP:  51; 6HR MAX TEMP:  67;

WINNER         FAIR      61  49  64 SW8       29.97S
YANKTON        PTCLDY    57  52  82 CALM      29.92R
$$

MNZ071-072-080-081-089-090-097-098-270700-
SOUTHWEST MINNESOTA

CITY           SKY/WX    TMP DP  RH WIND       PRES   REMARKS
FAIRMONT       CLOUDY    57  52  82 W6        29.87S
JACKSON        CLOUDY    55  54  94 W3        29.89S
LUVERNE        MOCLDY    57  52  82 NW3       29.90S
MARSHALL       PTCLDY    55  48  76 SW6       29.85S
6HR MIN TEMP:  55; 6HR MAX TEMP:  63;

MONTEVIDEO     PTCLDY    57  57 100 CALM      29.85S
REDWOOD FALLS  MOCLDY    57  54  89 S3        29.84F
TRACY          MOCLDY    58  55  92 SW7       29.87S
WINDOM         CLOUDY    55  54  94 CALM      29.88S
WORTHINGTON    CLOUDY    55  52  88 S5        29.89S
$$

IAZ001>003-012>014-020>022-031-032-NEZ013-014-SDZ071-270700-
NORTHWEST IOWA

CITY           SKY/WX    TMP DP  RH WIND       PRES   REMARKS
DENISON        PTCLDY    55  55 100 W3        29.90S
ESTHERVILLE    CLOUDY    56  55  97 W7        29.88R
SIOUX CITY     PTCLDY    54  52  93 SW5       29.92R
6HR MIN TEMP:  54; 6HR MAX TEMP:  68;

SPENCER        CLOUDY    57  55  93 W3        29.89S
6HR MIN TEMP:  57; 6HR MAX TEMP:  60; 6HR PCP: TRACE;

$$

ABBREVIATIONS USED IN REMARKS
   TC - TEMPERATURE IN CELSIUS
  WCI - WIND CHILL INDEX
   HX - HEAT INDEX
  VSB - VISIBILITY




USA.gov is the U.S. government's official web portal to all federal, state and local government web resources and services.